Location: ???????
(55.3754°N, 39.3545°E)
Time: 21:38:12
(UTC+00:00)

USA 229 - Pass Details

Date: 14 April 2026
Orbit: 843 x 1365 km, 63.4° (Epoch: 10 January)

Event Time Altitude Azimuth Distance (km) Brightness Sun altitude
Rises 21:51:11 0° 306° (NW) 3,860 7.0 -24.7°
Reaches altitude 10° 21:53:43 10° 308° (NW) 2,974 6.4 -24.6°
Maximum altitude 22:00:55 80° 36° (NE) 1,233 4.0 -24.5°
Drops below altitude 10° 22:09:02 10° 124° (SE) 3,322 6.0 -24.2°
Sets 22:11:59 0° 126° (SE) 4,334 6.7 -24.1°
